AZU3476 SBSM-SBPA

Flight info

Callsign AZU3476
Flight time N/A
Altitude 23000
Route KEXEL W18 DOPGA
Aircraft E195/M-SDE3GILORVW/S

Departure

Time 2026-05-08 08:51
Airport Santa Maria Airport (SBSM)

Arrival

Time N/A
Airport Porto Alegre-Salgado Filho International Airport (SBPA)
Time Latitude Longitude Altitude Speed Heading
2026-05-08 08:35 -29.70904 -53.70046 276 ft 0 kts
2026-05-08 08:47 -29.70900 -53.70047 279 ft 2 kts 345°
2026-05-08 08:47 -29.70900 -53.70064 279 ft 2 kts 245°
2026-05-08 08:47 -29.70925 -53.70063 276 ft 6 kts 169°
2026-05-08 08:48 -29.70993 -53.70058 281 ft 13 kts 181°
2026-05-08 08:48 -29.71073 -53.69995 280 ft 19 kts 104°
2026-05-08 08:48 -29.71084 -53.69825 279 ft 24 kts 92°
2026-05-08 08:48 -29.71094 -53.69617 283 ft 28 kts 93°
2026-05-08 08:49 -29.71110 -53.69368 282 ft 34 kts 93°
2026-05-08 08:49 -29.71124 -53.69100 282 ft 34 kts 93°
2026-05-08 08:49 -29.71145 -53.68819 284 ft 37 kts 96°
2026-05-08 08:49 -29.71160 -53.68519 279 ft 39 kts 91°
2026-05-08 08:50 -29.71171 -53.68203 280 ft 40 kts 93°
2026-05-08 08:50 -29.71188 -53.67891 281 ft 38 kts 92°
2026-05-08 08:50 -29.71195 -53.67704 286 ft 6 kts
2026-05-08 08:50 -29.71192 -53.67724 286 ft 3 kts 264°
2026-05-08 08:51 -29.71192 -53.67833 281 ft 42 kts 274°
2026-05-08 08:51 -29.71158 -53.68466 278 ft 114 kts 273°
2026-05-08 08:51 -29.71096 -53.69560 486 ft 155 kts 276°
2026-05-08 08:51 -29.71001 -53.70889 1043 ft 180 kts 277°
2026-05-08 08:52 -29.70933 -53.72403 1982 ft 190 kts 271°
2026-05-08 08:52 -29.71302 -53.73809 3277 ft 188 kts 233°
2026-05-08 08:52 -29.72401 -53.74812 4149 ft 218 kts 216°
2026-05-08 08:52 -29.73929 -53.75448 4603 ft 248 kts 192°
2026-05-08 08:53 -29.75719 -53.75286 5234 ft 272 kts 169°
2026-05-08 08:53 -29.77408 -53.74137 5907 ft 297 kts 139°
2026-05-08 08:53 -29.78470 -53.72027 6579 ft 315 kts 105°
2026-05-08 08:53 -29.78746 -53.69513 7401 ft 319 kts 90°
2026-05-08 08:54 -29.78789 -53.66949 8241 ft 322 kts 90°
2026-05-08 08:54 -29.78915 -53.64365 9064 ft 326 kts 92°
2026-05-08 08:54 -29.79084 -53.61743 9894 ft 331 kts 92°
2026-05-08 08:54 -29.79270 -53.59039 10413 ft 347 kts 92°